Weather History for Cedar City, UT

Change the Weather History Date:

Monday, March 11, 2013

  Actual Average Record
Temperature  
Mean Temperature 39 °F 39 °F  
Max Temperature 56 °F 53 °F 72 °F (1972)
Min Temperature 21 °F 25 °F 6 °F (2006)
Degree Days  
Heating Degree Days 26 26  
Month to date heating degree days 277 296  
Since 1 July heating degree days 4897 4858  
Cooling Degree Days 0 0  
Month to date cooling degree days 0 0  
Year to date cooling degree days 0 0  
Moisture  
Dew Point 24 °F    
Average Humidity 60    
Maximum Humidity 88    
Minimum Humidity 32    
Precipitation  
Precipitation 0.00 in 0.04 in 0.82 in (1995)
Month to date precipitation 0.84 0.47  
Year to date precipitation 2.81 2.33  
Sea Level Pressure  
Sea Level Pressure 30.24 in    
Wind  
Wind Speed 5 mph (NNE)    
Max Wind Speed 16 mph    
Max Gust Speed 22 mph    
Visibility 10 miles    
Events      
T = Trace of Precipitation, MM = Missing Value Source: NWS Daily Summary

Daily Weather History Graph

Daily Weather History Graph

Search for Another Location

Airport:

Trip Planner

Search our weather history database for the weather conditions in past years. The results will help you decide how hot, cold, wet, or windy it might be!

Date:

Astronomy

Mar. 11, 2013 Rise Set
Actual Time 7:48 AM MDT 7:36 PM MDT
Civil Twilight 7:22 AM MDT 8:02 PM MDT
Nautical Twilight 6:52 AM MDT 8:32 PM MDT
Astronomical Twilight 6:21 AM MDT 9:03 PM MDT
Moon 7:25 AM MDT (3/11) 7:51 PM MDT (3/11)
Length of Visible Light 12h 39m
Length of Day
11h 47m
Waning Crescent, 0% of the Moon is Illuminated
Mar 11
Waning Crescent
Mar 11
New
Mar 19
First Quarter
Mar 27
Full
Apr 2
Last Quarter

Hourly Weather History & Observations

Time (MDT) Temp. Windchill Dew Point Humidity Pressure Visibility Wind Dir Wind Speed Gust Speed Precip Events Conditions
12:53 AM 27.0 °F - 21.9 °F 81% 30.32 in 10.0 mi Calm Calm - N/A   Clear
1:53 AM 28.0 °F - 23.0 °F 81% 30.30 in 10.0 mi Calm Calm - N/A   Clear
2:53 AM 25.0 °F 20.7 °F 21.9 °F 88% 30.28 in 10.0 mi NE 3.5 mph - N/A   Clear
3:53 AM 25.0 °F 18.1 °F 21.0 °F 85% 30.27 in 10.0 mi NNE 5.8 mph - N/A   Clear
4:53 AM 26.1 °F - 19.9 °F 78% 30.24 in 10.0 mi Calm Calm - N/A   Clear
5:53 AM 25.0 °F 19.3 °F 19.0 °F 78% 30.24 in 10.0 mi NNE 4.6 mph - N/A   Clear
6:53 AM 24.1 °F 18.2 °F 19.0 °F 81% 30.26 in 10.0 mi NE 4.6 mph - N/A   Clear
7:53 AM 21.9 °F 17.2 °F 18.0 °F 85% 30.30 in 10.0 mi North 3.5 mph - N/A   Clear
8:53 AM 28.0 °F - 21.0 °F 75% 30.31 in 10.0 mi Calm Calm - N/A   Clear
9:53 AM 32.0 °F 27.5 °F 23.0 °F 69% 30.33 in 10.0 mi East 4.6 mph - N/A   Clear
10:53 AM 37.9 °F 34.4 °F 23.0 °F 55% 30.30 in 10.0 mi NE 4.6 mph - N/A   Clear
11:53 AM 44.1 °F 39.5 °F 25.0 °F 47% 30.28 in 10.0 mi NE 8.1 mph - N/A   Clear
12:53 PM 50.0 °F - 25.0 °F 38% 30.22 in 10.0 mi North 10.4 mph - N/A   Clear
1:53 PM 53.1 °F - 24.1 °F 32% 30.18 in 10.0 mi North 12.7 mph 19.6 mph N/A   Clear
2:53 PM 55.0 °F - 25.0 °F 31% 30.18 in 10.0 mi NNW 13.8 mph 18.4 mph N/A   Clear
3:53 PM 55.0 °F - 27.0 °F 34% 30.16 in 10.0 mi NNE 11.5 mph - N/A   Clear
5:53 PM 54.0 °F - 25.0 °F 33% 30.14 in 10.0 mi NNE 8.1 mph - N/A   Clear
6:53 PM 53.1 °F - 26.1 °F 35% 30.14 in 10.0 mi North 6.9 mph - N/A   Clear
7:53 PM 45.0 °F 41.2 °F 27.0 °F 49% 30.18 in 10.0 mi North 6.9 mph - N/A   Clear
8:53 PM 39.0 °F 36.8 °F 28.0 °F 65% 30.20 in 10.0 mi ENE 3.5 mph - N/A   Clear
9:53 PM 37.9 °F 34.4 °F 27.0 °F 65% 30.20 in 10.0 mi North 4.6 mph - N/A   Clear
10:53 PM 34.0 °F - 27.0 °F 75% 30.20 in 10.0 mi Calm Calm - N/A   Clear
11:53 PM 33.1 °F - 26.1 °F 75% 30.18 in 10.0 mi Calm Calm - N/A   Clear